Flag for Jamaica Weather past 2 weeks in May Pen, Jamaica

Now
82 °F

Passing clouds.


Feels Like: 87 °F
Forecast: 71 / 89 °F
Wind: 5 mph from North

Location: Kingston / Norman Manley

Current Time: May 29, 2015 at 8:33:23 AM

Latest Report: May 29, 2015 at 8:00 AM


Visibility: N/A

Pressure: 29.95 "Hg

Humidity: 70%

Dew point: 72 °F

Location of May PenLocation

Historic Weather in May Pen — Graph

°F

May Pen temperature yesterday

Maximum temperature yesterday: 90 °F (at 1:00 PM)
Minimum temperature yesterday: 77 °F (at 4:00 AM)
Average temperature yesterday: 82 °F

Past Weeks' High & Low Weather Summary

 TemperatureHumidityPressure
High90 °F (May 21, 1:00 PM)89% (May 19, 1:00 AM)30.07 "Hg (May 19, 1:00 AM)
Low77 °F (May 27, 1:00 AM)55% (May 26, 3:00 PM)29.86 "Hg (May 27, 3:00 PM)
Average83 °F73%29.97 "Hg
* Reported May 14 7:00 AM — May 29 7:00 AM, May Pen, Weather by CustomWeather, © 2015

Note: Actual official high and low records may vary slightly from our data, if they occured in-between our weather recording intervals... More about our weather records

Advertising

May Pen weather history for previous 24 hours

 ConditionsComfort  
Time TempWeatherWind HumidityBarometerVisibility
7:00 AM
Fri, May 29
79 °FPassing clouds.7 mph84%29.92 "HgN/A
6:00 AM79 °FPassing clouds.8 mph79%29.92 "HgN/A
5:00 AM79 °FPassing clouds.9 mph79%29.89 "HgN/A
4:00 AM79 °FPassing clouds.7 mph79%29.89 "HgN/A
3:00 AM81 °FPassing clouds.7 mph74%29.89 "HgN/A
2:00 AM79 °FPassing clouds.7 mph79%29.89 "HgN/A
1:00 AM79 °FPassing clouds.8 mph84%29.92 "HgN/A
12:00 AM81 °FPassing clouds.5 mph79%29.95 "HgN/A
11:00 PM
Thu, May 28
81 °FPassing clouds.3 mph79%29.95 "HgN/A
10:00 PM81 °FPassing clouds.3 mph79%29.95 "HgN/A
9:00 PM82 °FPassing clouds.6 mph74%29.95 "HgN/A
8:00 PM81 °FPassing clouds.2 mph79%29.95 "HgN/A
7:00 PM81 °FPassing clouds.7 mph79%29.92 "HgN/A
6:00 PM79 °FBroken clouds.10 mph84%29.92 "HgN/A
5:00 PM82 °FScattered showers. Broken clouds.10 mph74%29.92 "HgN/A
4:00 PM84 °FScattered showers. Scattered clouds.15 mph70%29.89 "HgN/A
3:00 PM86 °FScattered showers. Scattered clouds.16 mph66%29.89 "HgN/A
2:00 PM86 °FScattered showers. Scattered clouds.16 mph70%29.92 "HgN/A
1:00 PM90 °FScattered showers. Scattered clouds.16 mph59%29.92 "HgN/A
12:47 PM88 °FThunderstorms. Scattered clouds.17 mph62%29.92 "HgN/A
12:00 PM86 °FPartly sunny.10 mph66%29.92 "HgN/A
11:00 AM86 °FPartly sunny.9 mph62%29.95 "HgN/A
10:00 AM84 °FPartly sunny.8 mph62%29.95 "HgN/A
9:00 AM82 °FPartly sunny.6 mph66%29.95 "HgN/A
8:00 AM81 °FPassing clouds.6 mph74%29.95 "HgN/A
Weather by CustomWeather, © 2015

See weather overviewHow to use our weather pages